Hourly Data Report for October 02, 2017

All times are specified in Local Standard Time (LST). Add 1 hour to adjust for Daylight Saving Time where and when it is observed.

TIMMINS A
ONTARIO

48°34'14.000" N
81°22'36.000" W
294.70 m
6078286
71739
YTS

Download Data

Hourly Data (October 2017)
Hourly Data Report for October 2, 2017
Temp Definition
°C
Dew Point Temp Definition
°C
Rel Hum Definition
%
Wind Dir Definition
10's deg

Wind Spd Definition
km/h
Visibility Definition
km
Stn Press Definition
kPa
Hmdx Definition


Wind Chill Definition


Weather Definition


TIME
00:00 Legend Double Dagger 8.0 6.9 93 16 3 24.1 98.92     LegendNANA
01:00 Legend Double Dagger 7.8 6.7 93 18 4 24.1 98.98     Mostly Cloudy
02:00 Legend Double Dagger 6.9 6.1 95 19 8 24.1 99.01     LegendNANA
03:00 Legend Double Dagger 6.2 5.7 97 17 6 24.1 99.02     LegendNANA
04:00 Legend Double Dagger 5.5 5.1 97 18 7 24.1 99.03     Mainly Clear
05:00 Legend Double Dagger 5.0 4.5 96 15 7 24.1 99.02     LegendNANA
06:00 Legend Double Dagger 4.3 3.9 97 16 8 24.1 99.09     LegendNANA
07:00 Legend Double Dagger 5.0 4.6 98 19 7 24.1 99.16     Mostly Cloudy
08:00 Legend Double Dagger 7.8 7.2 96 16 9 24.1 99.14     LegendNANA
09:00 Legend Double Dagger 10.9 9.2 89 17 12 24.1 99.07     LegendNANA
10:00 Legend Double Dagger 12.9 9.0 77 18 17 24.1 99.13     Mostly Cloudy
11:00 Legend Double Dagger 14.6 8.9 69 17 18 24.1 99.10     LegendNANA
12:00 Legend Double Dagger 14.6 8.6 67 18 17 24.1 99.08     LegendNANA
13:00 Legend Double Dagger 18.1 8.4 53 15 17 24.1 98.99     Mostly Cloudy
14:00 Legend Double Dagger 17.8 7.9 52 17 16 24.1 98.90     LegendNANA
15:00 Legend Double Dagger 17.8 7.1 49 17 23 24.1 98.91     LegendNANA
16:00 Legend Double Dagger 17.6 7.0 49 17 21 24.1 98.91     Mostly Cloudy
17:00 Legend Double Dagger 16.5 8.0 57 16 14 24.1 98.89     LegendNANA
18:00 Legend Double Dagger 15.8 7.9 59 16 19 24.1 98.87     LegendNANA
19:00 Legend Double Dagger 14.8 8.2 64 17 19 24.1 98.92     Mostly Cloudy
20:00 Legend Double Dagger 14.7 8.1 64 17 18 24.1 98.88     LegendNANA
21:00 Legend Double Dagger 14.4 7.9 64 18 21 24.1 98.88     LegendNANA
22:00 Legend Double Dagger 13.8 7.7 66 18 19 24.1 98.85     Mostly Cloudy
23:00 Legend Double Dagger 13.9 7.7 66 18 16 24.1 98.85     LegendNANA

Notes on Data Quality.

Legend

  • E = Estimated
  • M = Missing
  • NA = Not Available
  • ‡ = Partner data that is not subject to review by the National Climate Archives
Date modified: